Weather in Derzhavino

Russia / Orenburg Oblast     53°12′38″N   52°21′19″E
temp.,
°C
wind,
m/s
gust,
m/s
humid.,
%
clouds,
%
prec.,
mm/h
press.,
hPa
HPBL,
m
1 march, mon
mon123:00−14nnw379699 0.4 1012229
02:00−16nnw359694 0.0 1014133
05:00−18nw239773 0.0 101535
08:00−20nw33991 0.0 101739
11:00−18nw35960 0.0 1019155
14:00−16nw349355 0.0 1020260
17:00−16wnw469472 0.0 1021341
20:00−20wnw3310074 0.0 102241
2 march, tue
tue223:00−21w229937 0.0 102220
02:00−21sw339962 0.0 102141
05:00−20ssw4610056 0.0 1019129
08:00−15ssw61197100 0.1 1015286
11:00−11ssw71394100 0.4 1013449
14:00−8sw71294100 0.8 1009630
17:00−4sw81394100 1.6 1006724
20:00−3sw71496100 1.3 1003696
3 march, wed
wed323:00−2sw71296100 2.8 1002651
02:00−2wsw4897100 0.9 1001296
05:00−3wnw379887 1.0 1002278
08:00−8w239794 0.0 100261
11:00−7w359786 0.1 1003172
14:00−5w359693 0.0 1003270
17:00−5wnw469694 0.1 1004350
20:00−5w2796100 0.1 1004434
4 march, thu
thu423:00−8nw3896100 0.3 1006196
02:00−10wnw499683 0.1 1007248
05:00−13w369888 0.1 1008132
08:00−14wsw479896 0.1 1009129
11:00−11wsw599587 0.1 1009294
14:00−7sw6994100 0.1 1009398
17:00−6sw71293100 0.2 1008573
20:00−4sw81594100 0.3 1005862
5 march, fri
fri523:00−3sw91795100 1.2 1004894
02:00−1sw101692100 1.1 10011055
05:00−1sw101790100 1.3 10001006
08:00−2wsw101794100 0.4 1001964
11:00−1wsw91592100 1.0 10041084
14:00−3wnw61080100 0.4 1007667
17:00−5wnw378790 0.4 1010359
20:00−10wnw239029 0.0 101221